,,PA_Meas_PMT16A,,PR_Meas_QMR101_102,,RH_Meas_QMH101,,SR_Meas_QMS101,,TA_Meas_QMH101,,GenWind,,GenWind,
time,status,PA,status,PR,status,RH,status,SR,status,TA,status,DirAvg,status,SpdAvg,
2014-07-01, 00:00:04,VALID,919.61,VALID,0,VALID,96.3752,VALID,0.107441,VALID,20.3643,VALID,135,VALID,0.867969,
2014-07-01, 00:01:04,VALID,919.608,VALID,0,VALID,96.36,VALID,0.107441,VALID,20.3838,VALID,135,VALID,0.961328,
2014-07-01, 00:02:04,VALID,919.63,VALID,0,VALID,96.3752,VALID,0.107441,VALID,20.3643,VALID,135,VALID,0.801562,
2014-07-01, 00:03:04,VALID,919.65,VALID,0,VALID,96.3752,VALID,0.107441,VALID,20.3659,VALID,135,VALID,0.724219,
2014-07-01, 00:04:04,VALID,919.615,VALID,0,VALID,96.3524,VALID,0.107441,VALID,20.3448,VALID,135,VALID,1.07266,
2014-07-01, 00:05:04,VALID,919.628,VALID,0,VALID,96.36,VALID,0.107441,VALID,20.3643,VALID,145,VALID,1.07187,
2014-07-01, 00:06:04,VALID,919.582,VALID,0,VALID,96.3447,VALID,0.107441,VALID,20.4033,VALID,145,VALID,1.08008,
2014-07-01, 00:07:04,VALID,919.58,VALID,0,VALID,96.3371,VALID,0.107441,VALID,20.3253,VALID,145,VALID,0.911719,
2014-07-01, 00:08:04,VALID,919.556,VALID,0,VALID,96.3066,VALID,0.107441,VALID,20.3643,VALID,139,VALID,1.20195,
2014-07-01, 00:09:04,VALID,919.555,VALID,0,VALID,96.3142,VALID,0.107441,VALID,20.4049,VALID,144,VALID,1.00508,
2014-07-01, 00:10:04,VALID,919.546,VALID,0,VALID,96.2761,VALID,0.107441,VALID,20.3643,VALID,138,VALID,1.26797,
2014-07-01, 00:11:04,VALID,919.515,VALID,0,VALID,96.2761,VALID,0.107441,VALID,20.3838,VALID,139,VALID,1.20859,
2014-07-01, 00:12:04,VALID,919.498,VALID,0,VALID,96.2609,VALID,0,VALID,20.3659,VALID,143,VALID,0.905859,
2014-07-01, 00:13:04,VALID,919.468,VALID,0,VALID,96.2304,VALID,0,VALID,20.3674,VALID,143,VALID,1.66406,
2014-07-01, 00:14:04,VALID,919.458,VALID,0,VALID,96.1999,VALID,0,VALID,20.3284,VALID,145,VALID,1.26523,
2014-07-01, 00:15:04,VALID,919.454,VALID,0,VALID,96.177,VALID,0,VALID,20.3284,VALID,148,VALID,1.01641,
2014-07-01, 00:16:04,VALID,919.45,VALID,0,VALID,96.1618,VALID,0,VALID,20.3674,VALID,148,VALID,1.20039,
2014-07-01, 00:17:04,VALID,919.418,VALID,0,VALID,96.1236,VALID,0,VALID,20.3464,VALID,157,VALID,1.14648,
2014-07-01, 00:18:04,VALID,919.408,VALID,0,VALID,96.0932,VALID,0,VALID,20.3659,VALID,168,VALID,1.09883,
2014-07-01, 00:19:04,VALID,919.395,VALID,0,VALID,96.0779,VALID,0,VALID,20.3269,VALID,158,VALID,1.2875,
2014-07-01, 00:20:04,VALID,919.415,VALID,0,VALID,96.055,VALID,0,VALID,20.3479,VALID,146,VALID,0.936328,
2014-07-01, 00:21:04,VALID,919.392,VALID,0,VALID,96.0093,VALID,0,VALID,20.3479,VALID,149,VALID,1.02227,
2014-07-01, 00:22:04,VALID,919.419,VALID,0,VALID,96.0093,VALID,0,VALID,20.3074,VALID,147,VALID,1.15156,
2014-07-01, 00:23:04,VALID,919.432,VALID,0,VALID,95.9864,VALID,0,VALID,20.3674,VALID,145,VALID,1.13945,
2014-07-01, 00:24:04,VALID,919.459,VALID,0,VALID,95.9864,VALID,0,VALID,20.3089,VALID,137,VALID,1.22695,
2014-07-01, 00:25:04,VALID,919.467,VALID,0,VALID,95.9941,VALID,0,VALID,20.2879,VALID,142,VALID,1.36211,
2014-07-01, 00:26:04,VALID,919.47,VALID,0,VALID,95.9941,VALID,0,VALID,20.3464,VALID,137,VALID,1.72109,
2014-07-01, 00:27:04,VALID,919.473,VALID,0,VALID,95.9941,VALID,0,VALID,20.3464,VALID,149,VALID,0.775781,
2014-07-01, 00:28:04,VALID,919.501,VALID,0,VALID,96.0017,VALID,0,VALID,20.3479,VALID,146,VALID,1.19023,
2014-07-01, 00:29:05,VALID,919.45,VALID,0,VALID,95.9941,VALID,0,VALID,20.3269,VALID,137,VALID,1.09727,
2014-07-01, 00:30:05,VALID,919.471,VALID,0,VALID,96.0017,VALID,0,VALID,20.3659,VALID,160,VALID,1.55352,
2014-07-01, 00:31:05,VALID,919.461,VALID,0,VALID,96.0245,VALID,0,VALID,20.3074,VALID,166,VALID,0.764063,
2014-07-01, 00:32:05,VALID,919.464,VALID,0,VALID,96.055,VALID,0,VALID,20.3074,VALID,144,VALID,1.09375,
2014-07-01, 00:33:05,VALID,919.496,VALID,0,VALID,96.0474,VALID,0,VALID,20.3284,VALID,146,VALID,0.64375,
2014-07-01, 00:34:05,VALID,919.482,VALID,0,VALID,96.0474,VALID,0,VALID,20.3074,VALID,141,VALID,1.1332,
2014-07-01, 00:35:05,VALID,919.519,VALID,0,VALID,96.0855,VALID,0,VALID,20.2879,VALID,139,VALID,1.15586,
2014-07-01, 00:36:05,VALID,919.531,VALID,0,VALID,96.1236,VALID,0,VALID,20.3674,VALID,135,VALID,0.632813,
2014-07-01, 00:37:05,VALID,919.51,VALID,0,VALID,96.1389,VALID,0,VALID,20.3269,VALID,135,VALID,0.250781,
2014-07-01, 00:38:05,VALID,919.544,VALID,0,VALID,96.1541,VALID,0,VALID,20.3479,VALID,170,VALID,1.15352,
2014-07-01, 00:39:05,VALID,919.544,VALID,0,VALID,96.177,VALID,0,VALID,20.3479,VALID,163,VALID,0.859375,
2014-07-01, 00:40:05,VALID,919.575,VALID,0,VALID,96.1694,VALID,0,VALID,20.3284,VALID,161,VALID,1.44687,
2014-07-01, 00:41:05,VALID,919.559,VALID,0,VALID,96.1618,VALID,0,VALID,20.3089,VALID,161,VALID,1.09375,
2014-07-01, 00:42:05,VALID,919.572,VALID,0,VALID,96.1694,VALID,0,VALID,20.3074,VALID,156,VALID,0.963281,
2014-07-01, 00:43:05,VALID,919.608,VALID,0,VALID,96.1923,VALID,0,VALID,20.2879,VALID,148,VALID,1.8625,
2014-07-01, 00:44:05,VALID,919.651,VALID,0,VALID,96.1999,VALID,0,VALID,20.3074,VALID,144,VALID,1.0668,
2014-07-01, 00:45:05,VALID,919.647,VALID,0,VALID,96.2151,VALID,0,VALID,20.3284,VALID,146,VALID,1.64492,
2014-07-01, 00:46:05,VALID,919.64,VALID,0,VALID,96.238,VALID,0,VALID,20.3479,VALID,147,VALID,1.13945,
2014-07-01, 00:47:05,VALID,919.638,VALID,0,VALID,96.238,VALID,0,VALID,20.3659,VALID,146,VALID,1.35,
2014-07-01, 00:48:05,VALID,919.62,VALID,0,VALID,96.2304,VALID,0,VALID,20.3674,VALID,150,VALID,1.52461,
2014-07-01, 00:49:05,VALID,919.579,VALID,0,VALID,96.2304,VALID,0,VALID,20.2879,VALID,141,VALID,0.991016,
2014-07-01, 00:50:05,VALID,919.584,VALID,0,VALID,96.2228,VALID,0,VALID,20.3074,VALID,144,VALID,1.14141,
2014-07-01, 00:51:05,VALID,919.549,VALID,0,VALID,96.2075,VALID,0,VALID,20.3089,VALID,147,VALID,1.21602,
2014-07-01, 00:52:05,VALID,919.575,VALID,0,VALID,96.2151,VALID,0,VALID,20.3269,VALID,145,VALID,1.42617,
2014-07-01, 00:53:05,VALID,919.564,VALID,0,VALID,96.1999,VALID,0,VALID,20.2879,VALID,158,VALID,1.6625,
2014-07-01, 00:54:05,VALID,919.537,VALID,0,VALID,96.2151,VALID,0,VALID,20.3284,VALID,144,VALID,1.89844,
2014-07-01, 00:55:05,VALID,919.565,VALID,0,VALID,96.1999,VALID,0,VALID,20.2684,VALID,136,VALID,1.27109,
2014-07-01, 00:56:05,VALID,919.549,VALID,0,VALID,96.1694,VALID,0,VALID,20.2684,VALID,137,VALID,1.35234,
2014-07-01, 00:57:05,VALID,919.516,VALID,0,VALID,96.1694,VALID,0,VALID,20.2504,VALID,114,VALID,1.54258,
2014-07-01, 00:58:05,VALID,919.501,VALID,0,VALID,96.1236,VALID,0,VALID,20.2114,VALID,136,VALID,1.49883,
2014-07-01, 00:59:05,VALID,919.482,VALID,0,VALID,96.1313,VALID,0,VALID,20.1903,VALID,135,VALID,1.42305,
2014-07-01, 01:00:05,VALID,919.479,VALID,0,VALID,96.1084,VALID,0,VALID,20.2098,VALID,130,VALID,1.54766,
2014-07-01, 01:01:05,VALID,919.446,VALID,0,VALID,96.1084,VALID,0,VALID,20.2293,VALID,145,VALID,1.32344,
2014-07-01, 01:02:05,VALID,919.425,VALID,0,VALID,96.055,VALID,0,VALID,20.2114,VALID,135,VALID,1.56289,
2014-07-01, 01:03:05,VALID,919.408,VALID,0,VALID,96.055,VALID,0,VALID,20.1903,VALID,141,VALID,2.17656,
2014-07-01, 01:04:05,VALID,919.394,VALID,0,VALID,96.0398,VALID,0,VALID,20.2699,VALID,144,VALID,1.10938,
2014-07-01, 01:05:05,VALID,919.404,VALID,0,VALID,95.9864,VALID,0,VALID,20.2293,VALID,147,VALID,1.41719,
2014-07-01, 01:06:05,VALID,919.397,VALID,0,VALID,95.9788,VALID,0,VALID,20.2699,VALID,156,VALID,1.525,
2014-07-01, 01:07:05,VALID,919.393,VALID,0,VALID,95.9407,VALID,0,VALID,20.2293,VALID,152,VALID,1.39063,
2014-07-01, 01:08:05,VALID,919.361,VALID,0,VALID,95.9102,VALID,0,VALID,20.2489,VALID,158,VALID,1.16289,
2014-07-01, 01:09:05,VALID,919.365,VALID,0,VALID,95.895,VALID,0,VALID,20.2293,VALID,156,VALID,0.813281,
2014-07-01, 01:10:05,VALID,919.349,VALID,0,VALID,95.8187,VALID,0,VALID,20.2293,VALID,142,VALID,1.23242,
2014-07-01, 01:11:05,VALID,919.372,VALID,0,VALID,95.8111,VALID,0,VALID,20.2504,VALID,144,VALID,0.951172,
2014-07-01, 01:12:05,VALID,919.402,VALID,0,VALID,95.7349,VALID,0,VALID,20.2098,VALID,129,VALID,1.14063,
2014-07-01, 01:13:05,VALID,919.367,VALID,0,VALID,95.6586,VALID,0,VALID,20.1903,VALID,122,VALID,1.46953,
2014-07-01, 01:14:05,VALID,919.354,VALID,0,VALID,95.5367,VALID,0,VALID,20.2114,VALID,127,VALID,1.40391,
2014-07-01, 01:15:05,VALID,919.369,VALID,0,VALID,95.3766,VALID,0.107441,VALID,20.1513,VALID,116,VALID,1.2375,
2014-07-01, 01:16:05,VALID,919.359,VALID,0,VALID,95.2698,VALID,0,VALID,20.1724,VALID,128,VALID,1.08633,
2014-07-01, 01:17:05,VALID,919.356,VALID,0,VALID,95.1479,VALID,0,VALID,20.1513,VALID,135,VALID,1.15156,
2014-07-01, 01:18:05,VALID,919.342,VALID,0,VALID,95.003,VALID,0,VALID,20.1318,VALID,131,VALID,0.723047,
2014-07-01, 01:19:05,VALID,919.304,VALID,0,VALID,94.7514,VALID,0,VALID,20.1318,VALID,133,VALID,1.18047,
2014-07-01, 01:20:05,VALID,919.28,VALID,0,VALID,94.4541,VALID,0,VALID,20.1529,VALID,138,VALID,1.11836,
2014-07-01, 01:21:05,VALID,919.296,VALID,0,VALID,94.233,VALID,0,VALID,20.1318,VALID,141,VALID,0.80625,
2014-07-01, 01:22:05,VALID,919.251,VALID,0,VALID,94.1034,VALID,0.107441,VALID,20.1123,VALID,138,VALID,0.803906,
2014-07-01, 01:23:05,VALID,919.23,VALID,0,VALID,93.9129,VALID,0,VALID,20.1708,VALID,138,VALID,0.832031,
2014-07-01, 01:24:05,VALID,919.211,VALID,0,VALID,93.8747,VALID,0,VALID,20.1903,VALID,154,VALID,0.518359,
2014-07-01, 01:25:05,VALID,919.179,VALID,0,VALID,93.8443,VALID,0,VALID,20.1318,VALID,158,VALID,0.821484,
2014-07-01, 01:26:05,VALID,919.151,VALID,0,VALID,93.8061,VALID,0,VALID,20.1513,VALID,160,VALID,0.486328,
2014-07-01, 01:27:05,VALID,919.116,VALID,0,VALID,93.7985,VALID,0,VALID,20.1123,VALID,160,VALID,0.407813,
2014-07-01, 01:28:05,VALID,919.107,VALID,0,VALID,93.829,VALID,0.107441,VALID,20.1724,VALID,160,VALID,0.391406,
2014-07-01, 01:29:05,VALID,919.073,VALID,0,VALID,93.8671,VALID,0,VALID,20.1529,VALID,160,VALID,0.453125,
2014-07-01, 01:30:05,VALID,919.029,VALID,0,VALID,93.8747,VALID,0,VALID,20.1123,VALID,160,VALID,0.247656,
2014-07-01, 01:31:05,VALID,919.04,VALID,0,VALID,93.8824,VALID,0,VALID,20.0733,VALID,160,VALID,0.635547,
2014-07-01, 01:32:05,VALID,919.021,VALID,0,VALID,93.8519,VALID,0,VALID,20.0928,VALID,160,VALID,0.646484,
2014-07-01, 01:33:05,VALID,918.96,VALID,0,VALID,93.9205,VALID,0,VALID,20.0944,VALID,160,VALID,0.882422,
2014-07-01, 01:34:05,VALID,918.94,VALID,0,VALID,93.9357,VALID,0,VALID,20.0944,VALID,159,VALID,0.588281,
2014-07-01, 01:35:05,VALID,918.943,VALID,0,VALID,93.8824,VALID,0,VALID,20.0538,VALID,145,VALID,0.720703,
2014-07-01, 01:36:05,VALID,918.909,VALID,0,VALID,93.8824,VALID,0,VALID,20.0944,VALID,150,VALID,1.03633,
2014-07-01, 01:37:05,VALID,918.904,VALID,0,VALID,93.7147,VALID,0,VALID,20.0538,VALID,139,VALID,1.31914,
2014-07-01, 01:38:05,VALID,918.896,VALID,0,VALID,93.7375,VALID,0,VALID,20.0148,VALID,143,VALID,1.2082,
2014-07-01, 01:39:05,VALID,918.865,VALID,0,VALID,93.7147,VALID,0,VALID,20.0343,VALID,149,VALID,1.58164,
2014-07-01, 01:40:05,VALID,918.845,VALID,0,VALID,93.6384,VALID,0,VALID,20.0733,VALID,142,VALID,1.2082,
2014-07-01, 01:41:05,VALID,918.808,VALID,0,VALID,93.5698,VALID,0,VALID,20.0749,VALID,142,VALID,1.3793,
2014-07-01, 01:42:05,VALID,918.804,VALID,0,VALID,93.6079,VALID,0,VALID,20.0733,VALID,148,VALID,1.25703,
2014-07-01, 01:43:05,VALID,918.782,VALID,0,VALID,93.4783,VALID,0,VALID,20.0733,VALID,150,VALID,1.19766,
2014-07-01, 01:44:05,VALID,918.813,VALID,0,VALID,93.2725,VALID,0,VALID,20.1123,VALID,140,VALID,1.01602,
2014-07-01, 01:45:05,VALID,918.781,VALID,0,VALID,93.2039,VALID,0,VALID,20.0733,VALID,128,VALID,1.11445,
2014-07-01, 01:46:05,VALID,918.783,VALID,0,VALID,93.1505,VALID,0,VALID,20.0749,VALID,134,VALID,0.719922,
2014-07-01, 01:47:05,VALID,918.758,VALID,0,VALID,93.1048,VALID,0,VALID,20.0733,VALID,135,VALID,1.20195,
2014-07-01, 01:48:05,VALID,918.747,VALID,0,VALID,92.9676,VALID,0,VALID,20.0343,VALID,118,VALID,0.575,
2014-07-01, 01:49:05,VALID,918.722,VALID,0,VALID,92.9599,VALID,0,VALID,20.0358,VALID,127,VALID,1.17031,
2014-07-01, 01:50:05,VALID,918.726,VALID,0,VALID,92.9523,VALID,0,VALID,19.9773,VALID,120,VALID,0.717969,
2014-07-01, 01:51:05,VALID,918.731,VALID,0,VALID,93.1886,VALID,0,VALID,19.9368,VALID,143,VALID,1.01016,
2014-07-01, 01:52:05,VALID,918.677,VALID,0,VALID,93.2268,VALID,0,VALID,19.9368,VALID,125,VALID,1.05742,
2014-07-01, 01:53:05,VALID,918.667,VALID,0,VALID,93.3335,VALID,0,VALID,19.9578,VALID,137,VALID,1.23281,
2014-07-01, 01:54:05,VALID,918.621,VALID,0,VALID,93.4859,VALID,0,VALID,19.9188,VALID,149,VALID,1.30742,
2014-07-01, 01:55:05,VALID,918.622,VALID,0,VALID,93.6308,VALID,0,VALID,19.9188,VALID,137,VALID,1.11563,
2014-07-01, 01:56:05,VALID,918.614,VALID,0,VALID,93.7528,VALID,0.107441,VALID,19.8978,VALID,135,VALID,1.44062,
2014-07-01, 01:57:05,VALID,918.601,VALID,0,VALID,94.0425,VALID,0,VALID,19.8213,VALID,144,VALID,1.33359,
2014-07-01, 01:58:05,VALID,918.592,VALID,0,VALID,94.233,VALID,0,VALID,19.7613,VALID,137,VALID,0.942969,
2014-07-01, 01:59:05,VALID,918.542,VALID,0,VALID,94.5456,VALID,0,VALID,19.7418,VALID,130,VALID,1.50625,
2014-07-01, 02:00:05,VALID,918.562,VALID,0,VALID,94.8048,VALID,0,VALID,19.7028,VALID,141,VALID,1.60352,
2014-07-01, 02:01:05,VALID,918.563,VALID,0,VALID,94.8887,VALID,0,VALID,19.7823,VALID,141,VALID,1.40156,
2014-07-01, 02:02:05,VALID,918.547,VALID,0,VALID,94.9344,VALID,0,VALID,19.8018,VALID,141,VALID,1.33789,
2014-07-01, 02:03:05,VALID,918.555,VALID,0,VALID,94.9725,VALID,0,VALID,19.7808,VALID,162,VALID,2.09922,
2014-07-01, 02:04:05,VALID,918.559,VALID,0,VALID,94.9268,VALID,0,VALID,19.8213,VALID,153,VALID,1.97617,
2014-07-01, 02:05:05,VALID,918.556,VALID,0,VALID,94.8124,VALID,0,VALID,19.8603,VALID,139,VALID,1.46055,
2014-07-01, 02:06:05,VALID,918.563,VALID,0,VALID,94.6676,VALID,0,VALID,19.8408,VALID,134,VALID,1.27227,
2014-07-01, 02:07:05,VALID,918.571,VALID,0,VALID,94.4846,VALID,0,VALID,19.8213,VALID,131,VALID,1.77773,
2014-07-01, 02:08:05,VALID,918.587,VALID,0,VALID,94.3093,VALID,0,VALID,19.8603,VALID,144,VALID,1.52227,
2014-07-01, 02:09:05,VALID,918.54,VALID,0,VALID,94.233,VALID,0,VALID,19.8993,VALID,163,VALID,1.31406,
2014-07-01, 02:10:05,VALID,918.564,VALID,0,VALID,94.2407,VALID,0,VALID,19.8393,VALID,169,VALID,1.34648,
2014-07-01, 02:11:05,VALID,918.556,VALID,0,VALID,94.1797,VALID,0,VALID,19.8603,VALID,163,VALID,0.960938,
2014-07-01, 02:12:05,VALID,918.519,VALID,0,VALID,94.2026,VALID,0,VALID,19.8603,VALID,170,VALID,0.480859,
2014-07-01, 02:13:05,VALID,918.548,VALID,0,VALID,94.2635,VALID,0,VALID,19.8198,VALID,166,VALID,0.787891,
2014-07-01, 02:14:05,VALID,918.542,VALID,0,VALID,94.3398,VALID,0,VALID,19.8393,VALID,175,VALID,0.954687,
2014-07-01, 02:15:05,VALID,918.506,VALID,0,VALID,94.3779,VALID,0,VALID,19.8198,VALID,183,VALID,0.495703,
2014-07-01, 02:16:05,VALID,918.515,VALID,0,VALID,94.4846,VALID,0,VALID,19.8393,VALID,189,VALID,0.527344,
2014-07-01, 02:17:05,VALID,918.493,VALID,0,VALID,94.4999,VALID,0,VALID,19.8393,VALID,169,VALID,0.570313,
2014-07-01, 02:18:05,VALID,918.48,VALID,0,VALID,94.4313,VALID,0,VALID,19.8588,VALID,168,VALID,0.252734,
2014-07-01, 02:19:05,VALID,918.458,VALID,0,VALID,94.3703,VALID,0,VALID,19.8408,VALID,146,VALID,0.869531,
2014-07-01, 02:20:05,VALID,918.446,VALID,0,VALID,94.1721,VALID,0,VALID,19.8408,VALID,145,VALID,0.8,
2014-07-01, 02:21:05,VALID,918.421,VALID,0,VALID,94.0348,VALID,0,VALID,19.8603,VALID,145,VALID,0.319531,
2014-07-01, 02:22:05,VALID,918.398,VALID,0,VALID,93.8976,VALID,0,VALID,19.9188,VALID,146,VALID,1.21133,
2014-07-01, 02:23:05,VALID,918.366,VALID,0,VALID,93.7451,VALID,0,VALID,19.9188,VALID,142,VALID,1.12344,
2014-07-01, 02:24:05,VALID,918.336,VALID,0,VALID,93.6079,VALID,0,VALID,19.8993,VALID,142,VALID,0.805469,
2014-07-01, 02:25:05,VALID,918.321,VALID,0,VALID,93.5241,VALID,0,VALID,19.8993,VALID,149,VALID,1.20547,
2014-07-01, 02:26:05,VALID,918.325,VALID,0,VALID,93.425,VALID,0,VALID,19.8798,VALID,137,VALID,0.634375,
2014-07-01, 02:27:05,VALID,918.296,VALID,0,VALID,93.3792,VALID,0,VALID,19.8993,VALID,162,VALID,1.00234,
2014-07-01, 02:28:05,VALID,918.307,VALID,0,VALID,93.3335,VALID,0,VALID,19.8978,VALID,131,VALID,0.83125,
2014-07-01, 02:29:05,VALID,918.291,VALID,0,VALID,93.2572,VALID,0,VALID,19.8993,VALID,137,VALID,0.617578,
2014-07-01, 02:30:05,VALID,918.269,VALID,0,VALID,93.2801,VALID,0,VALID,19.8798,VALID,135,VALID,0.398438,
2014-07-01, 02:31:05,VALID,918.296,VALID,0,VALID,93.303,VALID,0,VALID,19.8603,VALID,147,VALID,0.849219,
2014-07-01, 02:32:05,VALID,918.239,VALID,0,VALID,93.303,VALID,0,VALID,19.8408,VALID,147,VALID,0.486719,
2014-07-01, 02:33:05,VALID,918.223,VALID,0,VALID,93.3259,VALID,0,VALID,19.8408,VALID,150,VALID,0.375,
2014-07-01, 02:34:05,VALID,918.18,VALID,0,VALID,93.364,VALID,0,VALID,19.8603,VALID,152,VALID,0.893359,
2014-07-01, 02:35:05,VALID,918.203,VALID,0,VALID,93.4173,VALID,0,VALID,19.8213,VALID,152,VALID,0.978906,
2014-07-01, 02:36:05,VALID,918.148,VALID,0,VALID,93.4859,VALID,0,VALID,19.8213,VALID,154,VALID,0.700391,
2014-07-01, 02:37:05,VALID,918.149,VALID,0,VALID,93.5317,VALID,0,VALID,19.7613,VALID,136,VALID,1.20586,
2014-07-01, 02:38:05,VALID,918.135,VALID,0,VALID,93.6384,VALID,0,VALID,19.7433,VALID,147,VALID,1.42383,
2014-07-01, 02:39:05,VALID,918.118,VALID,0,VALID,93.6308,VALID,0,VALID,19.7628,VALID,148,VALID,1.34102,
2014-07-01, 02:40:05,VALID,918.129,VALID,0,VALID,93.6079,VALID,0,VALID,19.7418,VALID,135,VALID,1.57227,
2014-07-01, 02:41:05,VALID,918.103,VALID,0,VALID,93.5393,VALID,0,VALID,19.7613,VALID,146,VALID,1.57852,
2014-07-01, 02:42:05,VALID,918.115,VALID,0,VALID,93.4631,VALID,0,VALID,19.7613,VALID,144,VALID,1.48867,
2014-07-01, 02:43:05,VALID,918.109,VALID,0,VALID,93.3487,VALID,0,VALID,19.8018,VALID,146,VALID,1.41484,
2014-07-01, 02:44:05,VALID,918.104,VALID,0,VALID,93.2344,VALID,0,VALID,19.8018,VALID,149,VALID,1.19023,
2014-07-01, 02:45:05,VALID,918.106,VALID,0,VALID,93.1734,VALID,0,VALID,19.7823,VALID,148,VALID,1.25625,
2014-07-01, 02:46:05,VALID,918.107,VALID,0,VALID,93.1048,VALID,0,VALID,19.7823,VALID,137,VALID,0.966406,
2014-07-01, 02:47:05,VALID,918.113,VALID,0,VALID,93.0743,VALID,0,VALID,19.8213,VALID,166,VALID,0.641406,
2014-07-01, 02:48:05,VALID,918.101,VALID,0,VALID,93.0438,VALID,0,VALID,19.8018,VALID,143,VALID,0.881641,
2014-07-01, 02:49:05,VALID,918.082,VALID,0,VALID,92.9676,VALID,0,VALID,19.7823,VALID,156,VALID,0.157422,
2014-07-01, 02:50:05,VALID,918.082,VALID,0,VALID,92.9447,VALID,0,VALID,19.7628,VALID,153,VALID,1.11445,
2014-07-01, 02:51:05,VALID,918.053,VALID,0,VALID,92.9066,VALID,0,VALID,19.8003,VALID,161,VALID,0.547656,
2014-07-01, 02:52:05,VALID,918.029,VALID,0,VALID,92.838,VALID,0,VALID,19.8018,VALID,187,VALID,1.05273,
2014-07-01, 02:53:05,VALID,918.035,VALID,0,VALID,92.8151,VALID,0,VALID,19.7823,VALID,168,VALID,0.4375,
2014-07-01, 02:54:05,VALID,918.031,VALID,0,VALID,92.716,VALID,0.107441,VALID,19.8018,VALID,125,VALID,0.816797,
2014-07-01, 02:55:05,VALID,918.004,VALID,0,VALID,92.6474,VALID,0,VALID,19.8213,VALID,197,VALID,0.819141,
2014-07-01, 02:56:05,VALID,918.013,VALID,0,VALID,92.594,VALID,0,VALID,19.8003,VALID,201,VALID,0.370313,
2014-07-01, 02:57:05,VALID,918.047,VALID,0,VALID,92.5483,VALID,0,VALID,19.8213,VALID,201,VALID,0.303906,
2014-07-01, 02:58:05,VALID,918.029,VALID,0,VALID,92.4949,VALID,0,VALID,19.8213,VALID,201,VALID,0.348828,
2014-07-01, 02:59:05,VALID,918.034,VALID,0,VALID,92.5102,VALID,0,VALID,19.8198,VALID,201,VALID,0.291797,
2014-07-01, 03:01:04,VALID,918.002,VALID,0,VALID,92.655,VALID,0,VALID,19.8408,VALID,201,VALID,0,
2014-07-01, 03:02:04,VALID,917.993,VALID,0,VALID,92.7693,VALID,0,VALID,19.7628,VALID,201,VALID,0,
2014-07-01, 03:05:04,VALID,918.023,VALID,0,VALID,93.0972,VALID,0,VALID,19.6833,VALID,201,VALID,0,
2014-07-01, 03:06:04,VALID,917.991,VALID,0,VALID,93.181,VALID,0,VALID,19.6848,VALID,201,VALID,0.1625,
2014-07-01, 03:22:04,VALID,917.82,VALID,0,VALID,92.1214,VALID,0,VALID,19.7628,VALID,158,VALID,1.89492,
2014-07-01, 03:23:04,VALID,917.826,VALID,0,VALID,92.0909,VALID,0,VALID,19.7418,VALID,162,VALID,1.57383,
2014-07-01, 03:24:04,VALID,917.815,VALID,0,VALID,92.1061,VALID,0,VALID,19.7223,VALID,157,VALID,1.4418,
2014-07-01, 03:25:04,VALID,917.79,VALID,0,VALID,92.1976,VALID,0,VALID,19.7028,VALID,144,VALID,1.27266,
2014-07-01, 03:26:04,VALID,917.739,VALID,0,VALID,92.3119,VALID,0,VALID,19.6848,VALID,141,VALID,1.27266,
2014-07-01, 03:27:04,VALID,917.744,VALID,0,VALID,92.5102,VALID,0,VALID,19.6653,VALID,155,VALID,1.44453,
2014-07-01, 03:28:04,VALID,917.689,VALID,0,VALID,92.7389,VALID,0,VALID,19.6638,VALID,156,VALID,1.26953,
2014-07-01, 03:29:04,VALID,917.706,VALID,0,VALID,92.9599,VALID,0,VALID,19.6053,VALID,149,VALID,1.62578,
2014-07-01, 03:30:04,VALID,917.672,VALID,0,VALID,93.181,VALID,0,VALID,19.5678,VALID,146,VALID,1.22461,
2014-07-01, 03:31:04,VALID,917.682,VALID,0,VALID,93.3945,VALID,0,VALID,19.5468,VALID,142,VALID,1.2707,
2014-07-01, 03:32:04,VALID,917.688,VALID,0,VALID,93.5088,VALID,0,VALID,19.5273,VALID,157,VALID,0.989062,
2014-07-01, 03:33:04,VALID,917.666,VALID,0,VALID,93.5546,VALID,0,VALID,19.5273,VALID,140,VALID,1.52578,
2014-07-01, 03:34:04,VALID,917.673,VALID,0,VALID,93.5622,VALID,0,VALID,19.5273,VALID,152,VALID,1.19258,
2014-07-01, 03:35:04,VALID,917.662,VALID,0,VALID,93.5241,VALID,0,VALID,19.5678,VALID,146,VALID,1.62148,
2014-07-01, 03:36:04,VALID,917.69,VALID,0,VALID,93.4402,VALID,0,VALID,19.5678,VALID,143,VALID,1.33984,
2014-07-01, 03:37:04,VALID,917.66,VALID,0,VALID,93.4631,VALID,0.107441,VALID,19.5858,VALID,127,VALID,1.27227,
2014-07-01, 03:38:04,VALID,917.635,VALID,0,VALID,93.4173,VALID,0,VALID,19.5663,VALID,144,VALID,1.79922,
2014-07-01, 03:39:04,VALID,917.668,VALID,0,VALID,93.4555,VALID,0,VALID,19.5873,VALID,162,VALID,1.54844,
2014-07-01, 03:40:04,VALID,917.647,VALID,0,VALID,93.4707,VALID,0,VALID,19.5663,VALID,144,VALID,1.98477,
2014-07-01, 03:41:04,VALID,917.62,VALID,0,VALID,93.4555,VALID,0,VALID,19.5873,VALID,163,VALID,1.82422,
2014-07-01, 03:42:04,VALID,917.636,VALID,0,VALID,93.5164,VALID,0,VALID,19.5663,VALID,150,VALID,1.93125,
2014-07-01, 03:43:04,VALID,917.624,VALID,0,VALID,93.5088,VALID,0,VALID,19.6068,VALID,161,VALID,1.64219,
2014-07-01, 03:44:04,VALID,917.603,VALID,0,VALID,93.4707,VALID,0,VALID,19.6263,VALID,155,VALID,1.16641,
2014-07-01, 03:45:04,VALID,917.595,VALID,0,VALID,93.4478,VALID,0,VALID,19.6263,VALID,153,VALID,1.90547,
2014-07-01, 03:46:04,VALID,917.605,VALID,0,VALID,93.4402,VALID,0,VALID,19.6263,VALID,156,VALID,1.3082,
2014-07-01, 03:47:04,VALID,917.586,VALID,0,VALID,93.4021,VALID,0,VALID,19.6458,VALID,143,VALID,1.67188,
2014-07-01, 03:48:04,VALID,917.573,VALID,0,VALID,93.3945,VALID,0,VALID,19.6053,VALID,167,VALID,1.37461,
2014-07-01, 03:49:04,VALID,917.595,VALID,0,VALID,93.3716,VALID,0,VALID,19.6458,VALID,145,VALID,1.20352,
2014-07-01, 03:50:04,VALID,917.568,VALID,0,VALID,93.3411,VALID,0,VALID,19.6263,VALID,158,VALID,1.34766,
2014-07-01, 03:51:04,VALID,917.541,VALID,0,VALID,93.3259,VALID,0,VALID,19.6458,VALID,152,VALID,1.85625,
2014-07-01, 06:33:04,VALID,918.45,VALID,0,VALID,93.4783,VALID,5.04973,VALID,18.9452,VALID,119,VALID,0.519141,
2014-07-01, 06:34:04,VALID,918.472,VALID,0,VALID,93.6537,VALID,5.37206,VALID,18.9633,VALID,139,VALID,0.386719,
2014-07-01, 06:35:04,VALID,918.459,VALID,0,VALID,93.6689,VALID,5.80182,VALID,18.9828,VALID,139,VALID,0.348828,
2014-07-01, 06:36:04,VALID,918.478,VALID,0,VALID,93.6613,VALID,6.12415,VALID,18.9828,VALID,139,VALID,0.333203,
2014-07-01, 06:37:04,VALID,918.484,VALID,0,VALID,93.7223,VALID,6.44647,VALID,18.9633,VALID,139,VALID,0.374609,
2014-07-01, 06:38:04,VALID,918.487,VALID,0,VALID,93.9357,VALID,6.87623,VALID,19.0023,VALID,139,VALID,0.384375,
2014-07-01, 06:39:04,VALID,918.502,VALID,0,VALID,94.0501,VALID,7.306,VALID,19.0218,VALID,139,VALID,0.182031,
2014-07-01, 06:40:04,VALID,918.536,VALID,0,VALID,93.8824,VALID,7.73576,VALID,18.9842,VALID,139,VALID,0.3625,
2014-07-01, 06:41:04,VALID,918.529,VALID,0,VALID,93.9967,VALID,8.16553,VALID,18.9633,VALID,139,VALID,0,
2014-07-01, 06:42:04,VALID,918.511,VALID,0,VALID,94.0196,VALID,8.59529,VALID,18.9438,VALID,139,VALID,0.189063,
2014-07-01, 06:43:04,VALID,918.492,VALID,0,VALID,94.2026,VALID,8.91762,VALID,18.9243,VALID,110,VALID,0.916797,